Regional Weather Roundup
Issued by NWS Charleston, SC

Home | Current Version | Previous Version | Text Only | Print | Product List | Glossary On
Versions: 1 2 3 4 5 6 7 8 9 10 11 12 13 14 15 16 17 18 19 20 21 22 23 24 25 26 27 28 29 30 31 32 33 34 35 36 37 38 39 40 41 42 43 44 45 46 47 48 49 50
000
ASUS42 KCHS 042027
RWRCHS
REGIONAL WEATHER ROUNDUP
NATIONAL WEATHER SERVICE CHARLESTON SC
400 PM EDT SAT JUL 04 2015

NOTE: "FAIR" INDICATES FEW OR NO CLOUDS BELOW 12,000 FEET WITH NO
SIGNIFICANT WEATHER AND/OR OBSTRUCTIONS TO VISIBILITY.

NOT ALL STATIONS ARE QUALITY CONTROLLED BY THE NATIONAL
WEATHER SERVICE. USE DATA WITH CAUTION...ESPECIALLY
DEWPOINT OBSERVATIONS.

SCZ027-030-031-034>040-042>050-042100-
...SOUTHEAST SOUTH CAROLINA...

CITY           SKY/WX    TMP DP  RH WIND       PRES   REMARKS
N CHARLESTON   PTSUNNY   89  68  49 W9G18     30.05F HX  93
WATERFRONT PAR   N/A     88  71  57 VRB3      30.04F HX  94
MOUNT PLEASANT LGT RAIN  90  72  55 W8        30.05F HX  96
JOHNS ISLAND   FAIR      86  77  74 S10       30.06S HX  97
PINOPOLIS      NOT AVBL
MONCKS CORNER  FAIR      90  68  48 SW10      30.05S HX  93
SUMMERVILLE    FAIR      90  72  55 SW6       30.05F HX  96
BEAUFORT MCAS  MOSUNNY   91  70  49 W8        30.05F HX  96
BEAUFORT ARPT  CLOUDY    88  73  62 S5        30.05S HX  96
HILTON HEAD IS MOSUNNY   88  79  74 SE9       30.07F HX 102
WALTERBORO     MOCLDY    88  70  55 SW8       30.06S HX  92
ALLENDALE      FAIR      88  72  58 VRB5      30.04F HX  94

...SOUTHERN MIDLANDS AND PEE DEE...

CITY           SKY/WX    TMP DP  RH WIND       PRES   REMARKS
GEORGETOWN     NOT AVBL
KINGSTREE      NOT AVBL
ORANGEBURG     MOSUNNY   88  69  53 SW12      30.04F HX  92
BARNWELL       FAIR      90  72  55 SW9       30.05S HX  96
AIKEN          NOT AVBL
MANNING        FAIR      86  63  45 SW13G18   30.03F
COLUMBIA       PTSUNNY   87  67  51 SW14      30.02F HX  90
SUMTER         MOSUNNY   87  69  55 SW13      30.00F HX  92
FLORENCE       MOSUNNY   87  69  54 SW8       30.02F HX  91
MYRTLE BEACH   SUNNY     91  66  43 SW9       30.06F HX  94
N MYRTLE BEACH SUNNY     90  66  45 W10       30.03F HX  92

$$

GAZ063-065-086>088-099>101-113>116-118-119-134>141-150-042100-
...SOUTHEAST GEORGIA...

CITY           SKY/WX    TMP DP  RH WIND       PRES   REMARKS
SAVANNAH ARPT  PTSUNNY   91  69  48 N3        30.06S HX  96
HUNTER AAF     MOSUNNY   92  72  51 SW8       30.04S HX  99
FORT STEWART   MOSUNNY   91  71  51 SW6       30.04S HX  97
STATESBORO     NOT AVBL
SYLVANIA       PTCLDY    92  73  53 NW6       30.06S HX 101
CLAXTON        CLOUDY    81  68  65 W15G28    30.10R THUNDER

...CSRA...CENTRAL AND FAR SOUTHEAST GEORGIA...

CITY           SKY/WX    TMP DP  RH WIND       PRES   REMARKS
THOMSON        SUNNY     89  73  59 SW3       30.08F HX  97
AUGUSTA-BUSH   SUNNY     89  69  51 W8        30.03F HX  93
AUGUSTA-DANIEL SUNNY     88  69  53 W7        30.04F HX  92
SWAINSBORO       N/A     79  75  89 S6        30.11R THUNDER
VIDALIA        RAIN      77  70  78 NW12      30.12R
EASTMAN        MOCLDY    74  74 100 CALM      30.11F
HAZLEHURST     CLOUDY    76  75  97 S3        30.10R
ALMA           MOSUNNY   91  68  46 W14G22    30.06S HX  95
WAYCROSS       MOSUNNY   93  73  51 SW5       30.06F HX 102
JESUP          FAIR      97  72  44 SW7       30.05F HX 105
BAXLEY         TSTM      73  70  88 W25G37    30.10R
BRUNSWICK      CLOUDY    81  75  83 S8G23     30.09R THUNDER
SAINT SIMONS   MOSUNNY   81  74  79 S15G23    30.09R

$$

SCZ027-028-034-036>038-045-046-048>050-GAZ119-141-042100-
...LAKE AND SUPPLEMENTAL COASTAL OBSERVATIONS...

STATION/POSITION TIME  TEMP    WIND        PRES    WAVE   SWELL
                       AIR SEA DIR/SP/G            HT/PER HT/PER/DIR
                 (UTC) (F)     (DEG/KT/KT) (MB)    (FT/S) (FT/S/D)
UPR LAKE MARION  NOT AVBL
WINYAH BAY       1945   87     270/  5     1017.0S
LAKE MURRAY      1900   82     230/ 11/ 18 1016.3F
ACE BASIN NERRS  1900   90     170/  5     1018.0F
FORT PULASKI     2000   86 85  150/  9/ 13 1018.4S
SAPELO ISLAND    2000   87     150/ 13     1018.0S

$$

ANZ835-935-AMZ111-154-330-350-352-354-370-450-454-472-042100-
...C-MAN AND BUOY OBSERVATIONS...

STATION/POSITION TIME  TEMP    WIND        PRES    WAVE   SWELL
                       AIR SEA DIR/SP/G            HT/PER HT/PER/DIR
                 (UTC) (F)     (DEG/KT/KT) (MB)    (FT/S) (FT/S/D)
BUOY 41004       1950   81 82  210/ 14/ 16 1017.8F   4/ 9   3/ 9
BUOY 41008       1950   80 80  160/ 12/ 14 1019.0R   2/ 8   2/110/ 8
FOLLY BEACH CMAN 2000   83     190/ 13/ 15 1018.0F
CAPERS NEARSHORE 1908   83     210/ 16/ 19 1018.6F
FRIPP NEARSHORE  1900   84     210/ 10/ 10 1018.2F


STATION/POSITION TIME  TEMP    WIND        PRES    WAVE   SWELL
                       AIR SEA DIR/SP/G            HT/PER HT/PER/DIR
                 (UTC) (F)     (DEG/KT/KT) (MB)    (FT/S) (FT/S/D)
5E ST. MARYS GA  1921      77                N/A     2/10
FRYING PAN BUOY  1950   81 79  210/ 12/ 16 1018.3F   5/ 7   3/190/ 7
BUOY 41025       1950   81 82  220/ 25/ 29 1015.2F   7/ 7   2/170/ 9
CAPE LOOKOUT NC  2000   83     220/ 16/ 21 1016.0F
BUOY 41002       1950   82 81  240/ 10/ 12 1021.3F   5/ 6   5/260/ 6
BUOY 41010       1920   84 85  170/  6/  8 1020.9F
ST AUGUSTINE FL  2000   78 77  340/  4/  5 1020.4F


$$


USA.gov is the U.S. government's official web portal to all federal, state and local government web resources and services.